Wetterdaten am Flugplatz MSG Übersee

alte Datensätze gelöscht
138 aktuelle Wetterdateneinträge gefunden

Datum/Uhrzeit   Windrichtung/Grad    Geschw./kmh    Temp./C°    Luftdruck/mbar    Spannung/Volt   
2026-05-05 00:04 W/280 11 18 1015 12,61
2026-05-05 00:14 W/274 12 18 1015 12,29
2026-05-05 00:24 W/279 14 18 1015 12,45
2026-05-05 00:34 W/288 10 18 1015 12,49
2026-05-05 00:44 NW/296 6 18 1015 12,51
2026-05-05 00:54 O/96 5 18 1015 12,54
2026-05-05 01:04 W/268 3 18 1015 12,57
2026-05-05 01:14 W/264 2 18 1015 12,20
2026-05-05 01:24 W/263 4 17 1015 12,42
2026-05-05 01:34 W/263 3 17 1014 12,46
2026-05-05 01:44 W/263 6 17 1014 12,48
2026-05-05 01:54 W/263 4 17 1014 12,51
2026-05-05 02:05 W/279 4 17 1014 12,52
2026-05-05 02:15 W/266 4 16 1014 12,21
2026-05-05 02:25 W/264 2 16 1014 12,40
2026-05-05 02:35 W/263 4 16 1014 12,43
2026-05-05 02:45 W/263 5 16 1014 12,45
2026-05-05 02:55 W/263 2 16 1014 12,48
2026-05-05 03:05 W/263 3 15 1014 12,35
2026-05-05 03:15 SW/244 6 15 1014 12,39
2026-05-05 03:25 S/200 10 15 1014 12,52
2026-05-05 03:35 S/196 11 15 1014 12,45
2026-05-05 03:45 S/186 8 15 1013 12,33
2026-05-05 03:55 S/185 5 15 1013 12,39
2026-05-05 04:05 S/199 6 15 1013 12,42
2026-05-05 04:15 SW/213 5 15 1013 12,43
2026-05-05 04:25 SW/208 11 15 1013 12,30
2026-05-05 04:35 SW/223 8 14 1013 12,33
2026-05-05 04:45 SW/228 7 14 1013 12,36
2026-05-05 04:56 SW/228 6 14 1013 12,39
2026-05-05 05:06 SW/231 4 14 1013 12,27
2026-05-05 05:16 SW/233 4 14 1013 12,33
2026-05-05 05:26 SW/233 3 14 1013 12,35
2026-05-05 05:36 SW/219 5 13 1013 12,38
2026-05-05 05:46 SW/227 2 13 1013 12,27
2026-05-05 05:56 SW/229 1 13 1012 12,30
2026-05-05 06:06 SW/223 5 13 1013 12,36
2026-05-05 06:16 SW/209 8 13 1013 12,29
2026-05-05 06:26 SW/217 9 13 1012 12,32
2026-05-05 06:36 SW/212 7 13 1012 12,35
2026-05-05 06:46 S/188 5 13 1012 12,38
2026-05-05 06:56 SW/209 5 13 1012 12,26
2026-05-05 07:06 S/202 3 13 1013 12,32
2026-05-05 07:16 SO/141 2 14 1012 12,36
2026-05-05 07:27 SO/143 3 15 1012 12,30
2026-05-05 07:37 SO/157 3 15 1012 12,38
2026-05-05 07:47 NW/320 3 16 1012 12,42
2026-05-05 07:57 NW/321 7 17 1012 12,48
2026-05-05 08:07 NW/321 5 18 1012 12,58
2026-05-05 08:17 NW/321 3 19 1012 12,43
2026-05-05 08:27 NW/321 3 20 1012 12,54
2026-05-05 08:37 NW/321 5 21 1012 12,62
2026-05-05 08:47 NW/321 9 21 1012 12,60
2026-05-05 08:57 NW/321 6 22 1012 12,67
2026-05-05 09:07 NW/321 5 22 1012 12,70
2026-05-05 09:17 NW/327 6 23 1012 12,74
2026-05-05 09:27 NW/328 6 24 1012 12,71
2026-05-05 09:37 NW/319 10 24 1012 12,35
2026-05-05 09:48 NW/320 8 25 1012 12,48
2026-05-05 09:58 N/349 7 25 1012 12,57
2026-05-05 10:08 NO/29 5 25 1012 12,60
2026-05-05 10:18 NO/34 5 26 1012 12,62
2026-05-05 10:28 NW/326 4 26 1012 12,61
2026-05-05 10:38 NW/319 3 26 1012 12,62
2026-05-05 10:48 N/8 7 26 1012 12,65
2026-05-05 10:58 NO/52 8 27 1012 12,74
2026-05-05 11:08 NO/48 7 27 1012 12,71
2026-05-05 11:18 N/20 9 27 1012 12,39
2026-05-05 11:28 N/341 12 27 1012 12,57
2026-05-05 11:38 N/357 14 27 1011 12,62
2026-05-05 11:48 N/359 14 27 1011 12,57
2026-05-05 11:58 N/2 15 27 1011 12,58
2026-05-05 12:09 N/344 18 27 1011 12,61
2026-05-05 12:19 N/343 17 27 1011 12,62
2026-05-05 12:29 N/344 17 27 1011 12,65
2026-05-05 12:39 N/10 15 27 1011 12,67
2026-05-05 12:49 N/1 16 27 1010 12,68
2026-05-05 12:59 N/343 21 27 1010 12,70
2026-05-05 13:09 N/339 18 27 1010 12,70
2026-05-05 13:19 N/344 16 27 1010 12,35
2026-05-05 13:29 N/351 16 27 1010 12,45
2026-05-05 13:39 N/347 15 27 1009 12,48
2026-05-05 13:49 N/341 17 27 1009 12,52
2026-05-05 13:59 NW/333 18 27 1009 12,54
2026-05-05 14:09 NW/332 16 27 1009 12,57
2026-05-05 14:19 NW/330 16 27 1009 12,58
2026-05-05 14:29 NW/331 15 27 1009 12,60
2026-05-05 14:40 NW/331 13 27 1009 12,62
2026-05-05 14:50 NW/331 12 27 1009 12,62
2026-05-05 15:00 NW/323 11 27 1009 12,62
2026-05-05 15:10 NW/321 9 27 1009 12,64
2026-05-05 15:20 NW/321 9 27 1009 12,26
2026-05-05 15:30 NW/320 9 27 1009 12,39
2026-05-05 15:40 NW/317 7 27 1009 12,43
2026-05-05 15:50 NW/315 6 27 1009 12,45
2026-05-05 16:00 NW/315 6 27 1009 12,48
2026-05-05 16:10 NW/315 8 27 1009 12,52
2026-05-05 16:20 NW/315 9 27 1009 12,54
2026-05-05 16:30 NW/314 9 27 1009 12,55
2026-05-05 16:40 W/292 7 27 1009 12,57
2026-05-05 16:51 W/284 12 26 1009 12,60
2026-05-05 17:01 W/283 13 26 1009 12,58
2026-05-05 17:11 W/274 19 26 1009 12,16
2026-05-05 17:21 W/261 20 25 1010 12,38
2026-05-05 17:31 W/273 14 25 1010 12,40
2026-05-05 17:41 W/267 14 24 1010 12,43
2026-05-05 17:51 W/288 8 24 1010 12,45
2026-05-05 18:01 NW/305 11 24 1010 12,48
2026-05-05 18:11 NW/307 16 24 1009 12,51
2026-05-05 18:21 NW/308 9 23 1009 12,55
2026-05-05 18:31 NW/309 7 23 1009 12,57
2026-05-05 18:41 NW/310 3 23 1009 12,60
2026-05-05 18:51 NW/310 2 23 1009 12,26
2026-05-05 19:01 NW/311 7 23 1009 12,39
2026-05-05 19:11 NW/330 8 23 1009 12,42
2026-05-05 19:21 N/342 10 23 1009 12,45
2026-05-05 19:32 N/348 8 22 1009 12,49
2026-05-05 19:42 N/350 5 22 1009 12,55
2026-05-05 19:52 N/355 5 22 1009 12,57
2026-05-05 20:02 N/14 6 22 1009 12,55
2026-05-05 20:12 N/20 1 21 1009 12,13
2026-05-05 20:22 N/20 3 21 1010 12,36
2026-05-05 20:32 NW/325 3 21 1010 12,39
2026-05-05 20:42 W/283 1 20 1010 12,42
2026-05-05 20:52 W/289 5 20 1010 12,45
2026-05-05 21:02 NW/296 4 20 1011 12,46
2026-05-05 21:12 NW/300 8 19 1011 12,48
2026-05-05 21:22 W/290 7 19 1011 12,52
2026-05-05 21:32 W/279 7 19 1011 12,13
2026-05-05 21:42 W/288 5 19 1011 12,33
2026-05-05 21:52 W/290 3 18 1011 12,38
2026-05-05 22:02 NW/303 2 18 1011 12,39
2026-05-05 22:12 N/351 3 18 1011 12,43
2026-05-05 22:23 O/90 5 18 1012 12,46
2026-05-05 22:33 NO/42 6 18 1012 12,48
2026-05-05 22:44 NW/305 6 17 1012 12,18
2026-05-05 22:54 S/174 3 17 1012 12,32
2026-05-05 23:04 W/255 2 17 1012 12,36